Wind_Speed
8 8 9 10 11 12 14 15 16 17 17 18 19 19 20 20 20 20 20 21 21 21 21 21 21 21 20 20 19 19 18 16 15 13 13 12 12 11 11 11 10 9 9 9 8 7 7 7 8 7 5 4 5 6 5 4 6 8 8 8 9 8 6 6 6 4 3 4 5 5 4 5 5 5 6 6 4 3 4 5 5 4 3 2 2 3 1 0
7 8 9 10 12 14 15 16 17 18 19 20 20 21 21 21 21 21 21 21 21 22 22 22 22 22 22 21 20 20 19 18 16 14 14 14 13 11 11 11 10 10 10 10 9 8 7 8 8 7 5 4 4 5 4 3 6 8 9 9 9 9 8 8 8 7 6 7 5 6 5 4 5 5 6 8 6 4 4 6 6 6 5 4 4 4 3 1
7 8 10 11 13 15 16 18 19 21 22 22 22 22 21 21 21 21 22 21 21 22 22 22 22 22 22 21 20 20 20 19 16 15 16 15 14 12 11 11 11 11 11 11 10 9 8 8 8 7 5 4 4 4 3 4 7 7 9 9 8 9 8 8 9 10 10 9 7 7 7 6 6 6 6 7 8 6 6 6 6 6 6 6 5 3 3 2
7 9 11 13 15 16 18 20 22 23 24 24 24 23 22 21 20 20 20 21 21 21 21 22 22 22 22 21 20 19 20 18 15 16 17 15 14 13 12 12 12 12 11 11 10 9 8 8 8 7 6 4 4 5 4 4 7 7 9 11 9 9 8 8 10 12 12 10 10 10 9 9 8 7 6 6 8 8 7 6 6 6 5 5 5 3 3 3
9 10 12 14 16 18 20 22 24 25 26 26 25 24 22 21 20 19 19 19 19 19 19 20 20 21 20 20 19 19 19 16 15 18 16 15 15 14 13 13 12 12 11 11 10 9 9 8 8 7 6 5 5 5 4 4 7 8 9 11 12 10 8 10 11 12 11 11 12 13 12 10 10 8 6 6 8 9 7 7 7 5 4 4 5 4 3 4
10 11 13 16 18 20 22 24 26 27 27 26 25 23 21 20 19 17 17 16 16 16 16 16 17 17 18 18 17 17 16 14 17 17 15 15 16 15 14 13 13 12 11 11 11 10 9 9 9 8 7 6 6 6 5 5 9 10 9 10 13 11 9 11 11 12 12 11 13 15 14 13 12 9 6 7 10 9 7 7 7 6 6 6 6 4 2 3
11 13 15 17 19 22 24 25 27 27 27 26 24 22 20 19 17 16 15 14 13 13 13 14 14 14 15 16 15 16 13 13 16 15 14 15 15 15 15 14 14 13 12 11 11 10 9 9 9 8 8 8 7 7 6 7 11 10 8 9 12 13 11 10 11 13 14 13 13 14 16 16 15 11 10 10 10 10 9 7 7 7 7 7 6 4 2 3
12 14 16 18 21 23 25 26 27 27 26 25 23 21 19 17 16 15 14 13 12 12 12 12 12 12 13 13 14 14 11 13 14 12 13 13 14 15 15 15 14 14 13 12 11 10 9 9 10 9 9 8 7 8 7 8 12 10 8 10 11 13 13 12 13 14 14 13 14 14 16 18 17 14 13 13 12 10 10 9 8 7 8 8 7 4 2 2
13 15 17 19 22 24 25 26 27 27 25 23 21 19 17 16 15 14 14 13 12 11 11 11 11 12 11 12 12 11 12 13 12 11 12 12 12 14 15 15 15 14 14 13 11 11 11 11 10 8 7 8 9 10 9 9 11 9 9 10 11 13 14 14 14 14 14 14 14 15 16 18 18 16 16 17 15 12 10 9 9 8 8 8 7 5 3 1
14 15 17 20 22 24 25 26 27 26 24 21 18 16 15 15 15 14 13 13 12 12 11 11 11 12 12 11 10 11 13 12 12 12 12 12 12 13 14 15 15 14 14 13 12 12 12 10 8 7 8 10 11 11 10 10 10 9 10 10 11 13 13 14 14 14 15 14 14 15 17 19 20 20 21 21 18 14 11 10 10 9 8 9 8 7 4 0
15 16 18 20 22 24 25 26 26 25 23 20 16 14 13 14 15 14 13 13 12 12 12 11 12 12 12 12 12 12 12 11 12 12 12 12 12 13 13 14 14 15 14 13 13 13 12 10 9 10 11 10 9 10 10 11 11 11 11 10 11 13 13 12 14 15 14 15 15 16 17 17 22 28 27 24 20 15 12 11 11 10 9 9 10 8 5 2
15 16 18 20 22 23 25 26 25 24 22 19 16 13 13 14 15 15 15 14 13 13 13 12 13 13 13 13 13 13 12 11 12 13 13 13 12 13 13 13 14 14 14 13 13 12 12 11 11 12 10 8 8 9 9 10 11 11 12 11 12 13 13 13 14 15 14 14 15 16 16 15 23 32 31 25 23 19 15 14 12 11 11 10 11 9 5 2
15 16 18 19 21 23 24 25 24 23 21 19 16 13 13 14 15 16 16 15 14 14 14 13 13 13 13 14 13 13 12 12 13 13 14 14 13 13 13 13 13 13 13 13 13 12 13 13 13 13 10 10 11 8 8 10 10 10 10 11 11 12 14 13 13 14 14 14 14 16 17 14 17 24 26 27 28 24 20 17 14 13 11 11 11 9 6 3
16 16 18 19 21 22 23 24 23 22 20 18 16 13 13 14 15 16 16 16 15 14 14 14 15 14 15 15 14 13 13 12 13 13 14 14 14 14 14 13 13 13 12 13 13 13 14 14 14 13 10 12 13 9 10 10 9 10 10 10 11 12 15 14 14 14 13 13 13 15 15 13 14 16 22 28 29 25 21 17 15 13 12 12 11 9 6 4
16 17 18 19 21 22 23 23 23 21 20 18 15 14 13 14 15 16 16 16 15 14 13 13 14 14 15 16 16 15 14 14 13 13 14 14 15 15 15 15 15 14 14 14 14 14 14 14 15 14 13 14 13 10 12 10 10 10 9 11 13 14 16 15 14 15 12 12 13 13 12 11 14 15 19 23 22 21 19 17 15 12 12 12 11 9 7 4
16 17 18 20 21 22 22 23 22 21 20 18 16 14 13 14 15 15 16 15 15 15 14 13 13 12 14 14 14 15 16 16 15 15 15 15 15 16 16 16 16 16 16 15 16 16 16 16 15 15 15 15 14 14 13 11 11 10 9 13 15 16 17 15 14 15 13 12 11 11 10 11 13 14 16 19 20 19 17 16 14 12 12 13 11 9 7 5
16 17 19 20 21 22 22 23 22 21 20 19 18 16 14 15 15 16 16 16 16 16 15 14 13 13 13 12 12 14 15 16 16 17 17 17 17 17 17 17 17 17 17 17 17 17 18 17 17 16 16 15 15 16 14 11 9 11 14 16 15 16 17 14 13 13 13 11 10 10 7 6 8 12 17 20 21 18 16 14 12 12 12 12 10 9 7 5
16 18 19 20 22 22 22 22 22 21 20 19 19 17 16 16 16 17 17 18 18 17 17 16 15 15 13 12 12 13 14 15 15 16 16 17 17 18 18 18 18 18 18 18 18 19 19 19 18 18 17 16 16 16 14 10 9 15 18 16 16 17 16 14 12 12 12 10 9 8 3 5 8 13 16 17 18 16 14 13 12 12 12 11 10 9 7 5
17 18 19 21 22 22 22 22 21 20 20 19 19 18 17 17 17 18 19 19 19 19 18 18 17 17 15 14 14 13 13 14 14 15 15 16 16 17 17 18 18 18 19 19 19 19 20 19 19 18 17 17 17 16 16 13 12 16 17 15 17 18 15 14 13 10 10 9 5 4 4 8 10 14 16 15 15 14 13 13 13 11 10 10 10 9 8 6
17 18 20 21 22 22 22 21 21 20 19 19 18 18 18 17 17 18 19 19 20 20 19 19 18 18 17 16 15 14 14 13 13 14 14 15 15 15 16 16 16 17 19 19 19 19 19 19 19 18 18 18 17 18 17 17 16 16 15 16 18 18 16 15 14 11 10 10 7 4 3 6 11 14 15 15 14 13 13 13 12 12 10 9 9 10 9 8
18 19 20 21 22 22 22 21 20 19 19 18 18 17 17 17 17 17 17 17 18 18 18 18 18 18 18 17 16 15 15 13 13 14 13 14 14 15 15 15 16 17 18 19 18 17 17 18 18 18 19 17 19 22 20 19 21 18 15 15 17 18 17 16 15 13 12 12 10 9 7 5 11 13 13 15 15 14 13 12 11 11 11 10 10 11 11 9
18 19 21 22 22 22 21 20 19 18 18 17 17 17 17 17 17 16 16 16 16 16 17 17 16 17 17 17 16 15 15 13 12 12 12 13 13 14 14 15 16 17 17 17 16 16 16 17 17 17 17 18 22 25 24 22 23 21 18 16 17 17 17 17 17 15 14 13 11 11 12 10 11 13 13 15 15 16 17 15 13 12 12 11 10 11 11 10
19 20 21 21 21 21 20 19 18 17 16 16 16 16 16 16 16 16 16 16 16 16 15 15 16 16 16 17 16 16 15 13 12 12 12 12 12 13 14 14 15 15 15 15 16 17 12 9 15 17 16 21 26 26 25 22 20 22 21 18 18 17 16 17 17 17 16 15 13 12 12 9 9 10 12 15 14 15 19 18 14 13 14 12 12 12 12 11
19 20 21 21 21 20 19 18 16 16 15 15 15 15 16 16 16 17 16 16 17 16 16 16 17 18 18 18 17 16 15 13 12 12 11 12 11 12 12 13 13 12 15 15 15 16 10 7 15 17 19 25 29 28 26 22 21 23 23 21 19 18 19 18 17 18 15 13 14 13 12 10 8 9 12 15 14 15 19 18 13 12 14 13 13 14 13 13
20 20 21 21 20 19 18 17 15 15 14 15 15 15 16 17 17 18 18 18 17 14 15 18 19 20 19 18 18 17 16 13 13 11 10 10 10 10 11 11 12 11 13 14 13 13 12 14 17 17 24 30 27 24 24 24 23 20 18 18 16 17 19 19 18 19 15 10 13 14 14 12 9 10 12 14 14 16 19 18 14 14 14 14 14 14 14 13
20 20 20 20 19 18 17 16 15 14 14 14 14 16 17 18 19 20 20 22 19 14 16 20 21 21 19 18 19 18 16 12 11 10 8 8 7 9 9 8 10 10 11 12 11 11 13 18 22 23 27 28 23 18 18 24 25 18 13 11 12 18 20 18 18 19 16 12 11 13 15 14 10 11 12 13 15 17 18 17 15 15 15 15 15 14 14 14
20 20 20 20 19 17 16 15 14 14 15 14 14 16 18 19 20 20 21 22 19 18 22 23 24 23 20 19 19 17 15 12 11 9 8 7 6 7 7 5 7 8 9 8 7 10 15 22 28 25 21 21 22 20 17 20 22 17 17 16 13 17 21 21 20 17 16 15 12 11 13 12 11 11 12 13 15 16 15 15 15 15 15 15 15 15 15 14
20 20 20 19 18 17 16 15 14 14 15 14 15 17 18 20 21 20 21 18 14 19 24 23 23 22 20 20 19 17 15 12 10 8 7 6 5 5 5 5 6 6 6 6 5 12 16 19 24 23 18 18 20 18 16 19 20 19 23 24 19 21 24 23 22 19 18 16 13 12 13 11 11 11 10 10 13 14 14 14 15 17 17 16 15 16 16 15
20 20 19 19 18 16 16 15 15 15 15 15 16 18 19 20 20 21 21 15 12 18 23 22 21 20 19 18 17 15 14 12 9 8 8 6 6 6 4 5 6 6 7 8 9 13 13 12 16 18 16 18 17 16 21 23 20 20 26 26 24 29 28 22 22 22 20 16 14 13 13 13 13 13 11 10 10 11 12 12 13 18 18 16 17 17 16 16
20 20 19 19 18 16 16 15 16 16 16 17 17 18 19 19 20 21 18 14 16 22 23 22 20 18 19 18 15 12 9 9 8 7 7 7 6 6 6 6 7 7 8 9 11 13 13 11 13 14 14 16 17 18 21 20 15 15 23 24 23 26 25 23 24 24 21 16 14 14 14 15 15 13 12 12 12 11 11 10 11 16 17 16 17 18 18 17
21 20 19 19 18 17 16 16 16 16 17 17 18 19 19 19 19 19 15 13 16 21 21 22 22 20 20 18 13 12 10 8 7 6 7 7 6 6 6 6 6 6 6 8 11 12 13 14 14 15 14 15 18 17 16 19 22 19 18 19 21 19 19 23 24 23 22 18 15 16 17 16 15 13 12 14 15 13 13 11 9 13 16 16 17 18 19 19
21 20 20 19 18 17 16 16 16 16 17 17 17 18 18 19 18 14 13 12 11 16 18 20 22 19 17 16 13 12 10 6 6 5 6 5 6 8 4 2 3 4 4 5 8 11 14 16 15 14 13 15 15 14 15 21 26 25 18 19 20 16 14 19 21 23 23 20 19 18 18 17 16 15 15 15 15 14 13 12 11 12 14 15 16 18 20 20
21 20 20 19 18 17 17 17 17 16 17 16 17 18 17 20 17 8 8 12 13 17 18 17 19 17 14 13 11 11 7 4 5 5 6 4 5 4 3 3 6 2 4 3 1 7 11 14 17 15 12 14 14 13 17 17 18 21 22 24 23 19 16 15 16 21 22 23 23 22 20 19 17 17 18 17 16 14 13 12 12 13 13 12 14 18 21 21
21 20 20 19 18 18 18 18 18 18 18 18 18 19 18 20 17 7 5 11 15 18 17 15 16 14 11 5 4 9 6 3 6 4 5 6 3 4 4 8 9 3 6 4 1 5 7 9 16 12 7 11 14 15 17 14 10 17 20 21 22 22 20 16 15 18 22 26 28 25 25 23 20 20 20 18 17 15 14 13 13 14 16 14 13 16 20 23
21 20 19 19 18 18 18 18 19 19 19 19 19 20 19 18 15 7 3 11 15 16 14 14 11 9 13 8 6 8 3 2 5 5 4 5 8 9 5 6 6 4 4 4 7 10 7 6 11 6 3 10 14 14 19 19 15 13 16 17 18 18 19 20 20 20 21 27 29 25 24 24 22 21 21 17 14 15 16 16 14 15 16 16 15 15 19 24
22 20 20 19 19 19 19 19 19 20 20 21 21 20 18 16 12 7 8 16 14 12 9 9 7 10 10 12 14 13 7 5 3 7 5 2 6 9 5 3 6 7 4 5 12 13 5 6 7 8 9 12 13 11 17 19 16 12 12 15 15 13 15 19 23 23 21 22 24 23 22 22 20 19 21 19 15 17 18 16 16 16 16 16 17 17 20 25
22 21 20 20 19 19 20 19 20 20 20 21 20 19 17 15 13 11 11 15 15 14 8 2 5 4 1 8 12 11 9 4 3 7 8 5 5 5 3 1 6 9 7 9 13 12 7 8 9 11 10 9 16 15 16 20 19 16 12 10 12 12 14 18 20 21 19 17 18 18 20 21 19 18 20 20 18 19 18 15 15 16 16 17 18 19 21 26
22 21 20 20 20 20 20 20 20 20 20 20 19 18 16 14 16 17 15 14 16 15 4 5 4 11 4 4 11 13 10 7 6 8 9 5 4 5 3 3 6 9 9 8 6 7 10 9 7 9 10 11 13 15 13 17 21 22 16 10 9 12 14 17 18 18 16 15 14 14 17 21 21 19 19 18 18 19 18 18 17 15 17 20 19 18 21 26
23 22 21 21 21 21 21 22 21 20 20 20 18 18 17 14 15 20 17 12 12 10 4 3 5 11 6 8 10 12 10 8 6 7 9 7 6 7 5 5 6 7 8 7 2 5 13 9 6 6 9 14 15 11 6 9 14 18 20 15 14 15 15 15 17 17 18 17 14 14 17 21 21 19 19 17 17 18 18 20 20 18 18 20 20 19 20 26
24 23 21 22 22 21 22 22 21 21 20 19 18 19 20 14 8 14 15 10 11 9 9 9 4 7 9 6 4 7 8 7 6 8 11 9 8 9 8 6 4 4 5 7 8 12 14 12 10 12 11 13 16 11 9 12 9 13 18 17 14 16 15 16 16 14 17 19 14 13 18 21 20 19 20 19 17 18 18 19 20 20 19 19 20 19 21 26
25 24 21 22 23 21 22 22 21 21 20 19 19 18 20 16 8 10 12 10 12 11 12 16 12 11 10 6 5 8 5 5 6 7 10 12 10 9 8 6 4 7 7 7 13 15 12 14 14 14 15 14 14 12 10 19 20 19 19 16 16 17 14 16 19 15 15 19 15 14 19 21 19 17 19 20 18 18 19 19 18 18 18 18 18 17 20 26
27 25 21 22 23 22 22 22 22 22 20 20 21 17 17 18 12 11 11 10 11 10 13 19 16 13 6 6 8 8 5 8 11 7 7 13 11 6 6 6 6 10 8 7 15 15 12 15 15 13 15 14 13 12 12 17 26 29 23 11 14 19 15 18 23 20 18 19 17 16 19 20 18 16 18 19 18 17 18 20 20 18 18 19 19 18 21 26
27 26 23 23 24 23 23 23 23 22 21 21 21 18 16 14 10 9 9 9 9 8 9 13 12 10 7 9 12 7 6 12 13 9 10 12 11 8 7 8 7 8 7 9 15 14 13 16 16 15 16 14 14 14 13 15 23 30 27 20 18 23 21 20 22 23 23 22 20 20 22 22 18 15 16 16 16 16 15 18 21 21 19 19 20 19 20 26
28 27 25 24 24 24 23 23 23 22 22 22 20 18 16 12 9 7 4 5 7 5 4 8 6 5 6 8 10 9 9 10 7 10 11 8 11 12 10 9 8 8 8 10 13 12 12 15 15 15 16 16 15 13 12 16 25 31 28 26 26 26 26 24 22 23 27 25 22 23 25 25 20 17 17 16 15 15 15 16 18 20 21 20 19 18 18 23
28 27 26 24 24 24 24 23 23 23 21 21 17 15 15 12 10 8 8 10 9 4 6 10 6 2 4 6 10 11 10 9 7 8 7 3 10 13 10 8 9 11 10 10 12 12 12 14 14 14 15 15 13 11 11 14 25 32 29 26 27 26 26 28 27 25 27 26 23 23 26 27 22 19 18 16 16 16 15 14 12 14 20 21 18 18 18 19
28 27 27 26 24 23 24 22 22 22 20 19 15 12 13 10 10 10 9 11 12 8 11 16 9 5 8 9 9 8 9 9 8 9 8 6 11 13 9 7 9 12 10 9 11 13 13 13 13 13 15 16 14 14 14 12 19 29 27 26 29 28 25 25 25 25 26 25 24 25 28 28 25 22 19 17 18 18 17 18 15 13 16 20 19 18 19 18
28 27 27 27 25 22 22 23 22 21 20 20 16 14 13 9 11 12 9 10 14 14 14 16 12 6 6 6 8 6 6 9 10 10 10 7 8 10 9 8 9 10 9 9 10 11 11 12 13 14 15 17 16 15 15 15 18 23 23 24 28 28 25 24 23 23 25 26 27 29 31 31 28 25 22 19 18 19 19 21 22 18 16 18 19 17 19 20
28 28 27 26 25 23 22 23 23 21 20 19 18 18 15 8 8 11 12 10 11 11 12 14 13 10 10 10 9 7 8 8 8 8 11 11 11 10 9 8 9 9 8 9 10 9 9 9 12 15 14 13 15 16 16 15 15 17 19 21 24 25 26 26 24 22 22 24 26 29 29 29 28 26 24 20 18 19 20 20 22 22 20 20 21 19 19 21
29 28 27 25 25 24 23 23 24 23 21 20 18 18 16 11 8 11 13 11 8 8 11 13 13 9 8 10 9 8 9 9 9 11 15 16 14 12 11 9 9 10 7 6 9 11 11 10 11 13 13 12 14 16 14 11 11 13 16 19 22 23 23 24 26 26 24 23 23 26 27 27 27 27 26 23 19 19 18 15 13 15 15 16 18 19 19 20
29 27 27 26 25 25 24 23 24 23 22 20 19 17 15 14 12 13 12 12 10 10 11 13 13 10 8 9 9 9 9 9 10 13 14 13 11 10 11 10 10 10 8 7 11 13 13 12 11 12 13 13 13 12 10 9 9 11 14 17 20 23 22 21 23 27 28 26 25 26 26 26 27 27 26 22 17 14 14 11 9 8 7 7 8 10 13 15
28 27 28 27 26 26 25 23 23 23 22 20 18 16 14 14 13 13 14 14 14 12 10 9 10 11 11 11 11 10 7 6 9 11 11 10 9 9 10 10 9 9 9 10 13 14 13 12 11 11 12 11 10 9 8 8 9 10 12 14 17 22 24 22 21 23 26 28 28 26 25 27 28 26 25 24 20 17 17 17 14 11 9 10 8 7 8 8
29 29 29 28 27 26 25 24 24 22 21 20 17 16 14 12 12 12 16 15 14 13 12 11 10 11 12 11 11 12 12 10 10 12 11 10 11 13 12 11 10 10 11 12 14 16 14 12 11 11 11 10 8 8 8 9 10 12 14 15 16 20 22 22 22 22 22 25 27 26 26 28 26 23 23 25 24 23 22 21 18 12 10 12 12 11 8 6
Wind_Direction
41 32 24 16 9 3 357 354 349 345 341 336 332 327 320 315 308 302 297 292 288 285 282 280 278 276 274 274 275 275 276 275 273 270 268 265 264 263 264 264 262 259 256 257 254 249 247 250 257 259 261 249 224 209 210 229 237 245 255 262 280 296 304 300 291 288 296 297 294 296 292 281 286 282 264 249 235 235 240 240 245 245 239 238 253 285 313 154
27 20 14 8 2 359 355 352 348 346 343 339 335 329 323 317 310 304 298 292 288 284 282 280 277 276 274 273 272 272 273 271 271 270 264 261 261 259 260 260 257 255 252 252 251 247 244 247 255 259 264 255 229 211 202 239 247 246 252 258 271 285 293 294 289 282 275 279 279 281 286 281 293 302 282 265 253 235 240 245 240 238 243 252 257 282 323 320
14 10 5 2 359 357 354 351 350 348 345 341 337 331 325 318 312 305 299 294 289 284 282 280 278 276 274 273 272 271 270 269 271 268 262 260 259 258 256 255 253 253 251 249 249 246 244 246 252 257 258 251 232 211 188 235 252 249 253 261 267 275 288 290 288 284 276 274 270 272 278 272 278 294 292 279 261 239 233 241 239 241 251 256 253 279 318 311
3 1 359 358 356 355 354 353 351 349 346 342 338 333 327 320 314 307 300 295 290 286 282 280 279 277 275 274 273 271 269 269 269 263 260 259 257 255 252 252 252 252 251 251 251 247 243 242 245 250 252 249 231 217 205 234 255 253 253 263 265 264 277 280 287 290 281 276 270 265 266 269 273 272 280 284 261 240 231 233 238 242 248 254 257 276 314 318
355 355 356 355 354 354 354 354 352 350 347 343 339 334 329 323 317 310 304 297 291 287 283 281 279 278 276 274 273 272 271 270 263 258 261 261 258 255 252 251 249 249 251 252 251 246 243 241 242 244 245 242 226 226 234 253 265 257 253 266 266 262 268 272 287 288 274 272 268 262 259 262 268 262 267 278 254 239 231 226 229 234 236 247 257 270 310 325
348 351 352 352 353 354 355 354 352 350 347 344 340 336 332 328 323 317 309 301 295 290 287 285 282 281 278 274 273 272 274 271 264 263 264 261 258 256 252 249 247 247 248 249 250 247 243 239 239 240 237 235 222 224 234 251 261 256 254 264 267 267 262 264 281 280 266 265 264 264 261 257 264 267 261 260 250 242 236 230 229 231 235 243 251 259 298 330
345 347 349 350 353 355 355 355 353 350 348 344 341 338 336 334 333 329 320 310 302 296 293 290 289 286 280 275 272 272 275 270 266 267 265 260 258 255 251 247 245 246 245 247 250 248 245 241 240 237 234 232 218 218 224 242 254 255 258 263 270 276 272 265 268 267 263 259 257 263 264 259 263 265 258 254 254 248 232 226 234 235 238 244 248 250 279 335
342 344 346 349 353 355 355 354 352 350 348 345 343 342 341 340 339 338 333 324 312 304 300 297 296 292 287 280 273 273 271 264 265 266 262 258 253 250 248 245 243 243 243 245 247 247 246 240 237 235 236 237 221 214 216 235 248 254 264 267 270 274 277 276 272 272 268 261 257 258 261 264 265 261 255 252 254 250 231 223 233 235 238 247 249 239 236 328
339 342 345 350 353 354 354 353 351 350 348 346 345 345 346 344 341 338 336 331 322 311 305 302 298 295 293 288 281 275 264 259 262 261 256 253 248 246 244 242 239 239 240 241 243 244 243 240 239 239 238 237 225 218 216 228 243 252 262 264 265 269 277 281 282 281 275 268 262 258 260 263 262 257 251 247 246 242 230 221 227 233 238 246 246 226 216 314
337 341 345 349 352 353 353 352 350 349 348 346 344 346 348 345 341 336 332 329 324 316 309 304 299 296 294 291 286 275 265 260 259 255 251 248 244 242 241 240 237 236 237 237 237 238 242 244 244 237 233 233 228 224 222 225 235 242 249 257 264 269 275 280 282 279 276 274 265 263 260 255 257 252 242 238 236 234 230 221 221 230 235 240 235 215 209 217
336 341 345 349 351 352 351 350 349 348 346 344 342 342 342 339 337 333 328 323 319 315 310 304 300 298 293 289 282 275 272 266 257 253 251 249 245 243 240 239 237 234 233 233 233 235 240 242 238 232 235 240 235 229 227 224 230 240 247 257 264 270 276 280 283 280 282 282 274 269 260 262 267 250 232 228 228 224 224 221 218 224 226 230 228 211 202 184
335 340 344 347 350 350 349 348 347 345 344 341 338 336 333 332 332 332 327 319 313 308 305 303 300 299 295 290 283 278 276 268 259 255 253 253 249 245 242 239 237 235 233 231 232 233 235 236 235 236 239 244 238 231 232 229 229 240 250 259 263 272 280 280 283 283 287 287 286 285 276 282 269 241 222 222 225 217 216 220 212 213 219 222 223 212 202 175
333 339 342 345 348 348 347 346 344 343 341 338 334 330 326 325 329 330 328 321 314 306 299 296 294 294 293 290 286 282 277 270 263 258 253 252 249 246 244 241 239 237 234 233 232 232 234 233 235 238 236 243 244 236 242 236 228 238 251 265 270 276 280 280 283 285 290 292 293 293 290 295 272 242 226 220 217 215 218 217 206 205 213 217 219 210 198 177
333 337 340 343 345 345 345 343 341 341 337 333 330 325 320 320 324 327 327 326 321 312 303 295 290 288 287 285 285 284 281 276 268 261 256 252 248 245 243 242 241 241 239 238 236 233 234 235 239 238 229 238 245 242 249 245 232 240 253 267 272 276 279 281 287 285 287 293 294 291 291 290 279 262 245 228 217 219 219 206 199 203 207 215 220 208 195 183
333 335 339 342 343 343 342 340 339 338 335 330 324 319 317 316 320 325 328 329 326 322 316 305 296 290 284 281 282 280 278 275 269 264 260 255 251 247 244 243 242 242 242 243 243 241 239 239 240 239 232 236 242 240 246 247 239 242 253 266 267 269 275 281 289 288 290 300 298 294 291 281 271 265 252 233 214 209 202 189 192 200 205 215 219 205 198 185
332 335 338 340 341 341 340 338 337 335 332 328 321 314 312 313 316 321 326 329 329 330 327 320 313 303 292 286 282 277 273 270 267 264 261 258 254 251 247 245 243 241 241 241 244 244 244 243 242 241 238 238 239 239 242 241 241 244 246 258 263 265 270 281 292 293 300 308 303 296 291 276 264 249 226 205 190 187 185 181 185 196 207 213 216 205 196 186
333 334 337 338 339 340 338 336 334 332 329 327 322 313 306 308 311 315 320 323 326 329 329 328 326 317 307 300 289 280 275 271 267 264 262 259 256 253 249 247 245 243 241 240 241 242 244 243 241 240 238 237 237 239 240 236 241 250 244 245 255 264 266 274 285 290 303 309 301 300 290 256 229 206 188 178 174 174 175 177 182 197 208 210 214 205 193 191
332 334 336 337 338 338 336 335 333 330 327 325 323 317 307 302 303 307 312 315 318 321 322 324 326 323 318 311 299 289 282 276 271 266 262 259 257 254 251 247 245 244 242 241 239 240 243 243 242 240 239 235 234 236 233 223 236 247 247 250 255 261 268 273 277 286 299 301 293 290 255 158 159 168 167 166 167 165 168 176 187 199 206 209 215 207 199 199
332 334 335 337 338 337 336 334 331 329 326 324 322 319 313 305 301 302 305 307 310 314 316 318 320 320 319 316 308 300 290 281 275 269 265 261 257 254 251 249 246 244 242 241 240 240 241 241 241 240 237 231 226 230 224 214 230 243 246 256 256 257 267 272 271 279 290 288 276 252 190 151 155 163 162 163 166 165 171 179 187 198 205 210 216 211 206 203
332 334 335 336 337 336 335 334 331 328 326 324 323 321 318 313 308 305 305 305 306 310 311 312 314 314 315 314 310 307 298 289 279 271 265 262 258 255 252 249 247 245 243 241 239 238 239 240 241 237 235 230 223 225 221 217 231 239 241 250 252 254 261 266 268 273 277 279 274 253 198 156 170 174 171 172 170 174 181 180 184 195 203 210 214 211 207 204
332 334 334 335 336 336 335 333 331 328 326 326 326 324 324 323 321 318 315 311 310 309 309 310 311 312 313 312 310 307 300 293 285 277 271 264 260 256 253 250 248 245 243 243 240 238 238 239 239 237 235 227 224 226 221 224 233 235 241 249 251 254 258 261 265 265 261 265 266 260 269 245 204 194 190 185 176 181 187 181 186 195 201 207 210 211 209 206
332 333 334 334 335 335 334 333 330 328 327 328 329 331 333 334 333 330 327 324 320 317 316 315 315 315 316 314 312 307 303 298 291 284 276 269 263 258 254 250 249 247 246 246 243 238 236 240 240 237 236 231 231 231 227 233 236 229 236 246 248 252 254 257 260 259 254 255 260 262 273 263 217 205 206 195 184 189 189 182 187 197 203 207 210 213 212 209
331 332 333 333 333 334 333 331 329 328 328 330 333 336 339 340 340 339 337 334 330 326 324 324 324 324 322 318 315 310 306 303 294 286 279 273 267 261 257 253 252 253 252 247 243 236 225 252 252 233 232 238 238 234 227 236 239 228 232 239 244 250 251 253 256 254 251 251 251 255 266 254 215 219 216 202 199 199 193 185 185 195 203 205 208 215 215 211
329 331 332 331 331 331 330 329 327 326 327 329 334 338 340 341 341 340 340 338 333 330 330 334 334 331 328 323 319 314 310 306 296 287 280 275 269 264 261 258 255 252 251 245 244 240 213 230 249 229 226 235 239 234 224 229 233 226 231 237 243 253 249 246 251 251 249 253 249 245 254 253 238 240 226 214 214 202 195 195 196 201 206 207 206 210 214 214
328 330 330 329 329 328 327 326 324 323 324 328 333 337 339 338 338 337 336 335 334 332 336 341 337 332 330 324 320 317 312 309 301 294 287 278 273 270 263 262 261 254 258 257 253 248 225 230 245 234 233 237 240 238 224 225 228 225 238 248 255 258 246 240 247 250 247 249 255 250 247 252 251 247 238 228 220 207 201 203 209 211 209 211 213 209 209 215
326 328 329 329 326 325 325 321 319 319 319 324 330 335 336 336 336 335 333 333 334 335 337 340 336 332 330 324 321 318 313 311 303 296 291 281 276 273 266 265 267 262 268 269 264 252 232 237 244 237 240 246 251 246 231 228 225 219 229 239 247 249 243 237 238 245 243 233 246 254 249 250 252 253 250 238 230 224 214 210 219 220 212 210 216 215 210 216
324 326 328 327 324 323 320 315 316 314 316 321 326 332 333 333 333 333 336 337 333 332 337 340 336 332 329 324 321 317 313 311 305 302 298 290 284 276 272 267 264 273 278 274 275 258 237 241 250 251 252 258 255 245 237 232 223 219 221 213 217 235 237 233 229 240 247 235 236 248 249 250 245 246 251 247 247 246 233 229 232 226 221 216 214 218 216 217
322 324 326 325 323 321 316 313 310 309 314 317 320 326 329 332 332 332 338 338 324 324 332 335 331 328 328 325 321 316 311 309 308 305 303 304 303 291 289 283 267 273 273 250 246 257 251 250 261 268 264 260 255 240 232 226 211 211 220 216 219 227 230 227 221 233 247 239 235 237 237 244 245 241 242 246 254 253 248 249 237 223 225 226 219 219 218 218
320 322 324 323 322 319 315 311 305 306 311 312 317 323 325 329 331 330 334 332 315 317 326 330 329 326 326 323 316 310 306 309 311 307 310 318 312 298 290 278 270 267 261 248 246 261 272 270 269 272 260 254 253 231 227 225 209 213 224 224 230 233 232 228 217 224 239 239 237 237 234 237 241 241 238 238 247 247 251 260 241 222 221 224 223 223 219 219
317 319 320 321 321 317 313 310 305 305 306 310 315 317 322 327 329 332 328 318 313 316 322 328 329 328 326 325 318 307 305 307 306 312 310 299 290 294 287 269 263 257 254 258 258 263 275 274 268 273 264 248 242 233 231 220 203 228 240 236 240 240 238 232 222 224 233 239 242 243 242 240 240 241 240 236 233 236 250 263 246 224 220 222 223 226 224 221
314 316 316 318 319 314 311 310 307 305 304 310 312 314 323 324 326 332 326 317 315 316 324 327 331 336 331 332 327 310 315 315 305 305 292 286 281 268 262 266 270 268 272 285 284 278 285 285 269 265 266 254 245 242 233 209 199 214 236 239 236 240 244 235 225 226 229 233 241 244 242 240 239 239 243 243 234 232 241 247 238 220 222 228 226 226 228 224
311 313 313 315 315 311 309 307 307 308 307 310 311 315 321 319 327 341 334 326 311 310 320 321 329 337 331 340 337 312 320 320 303 300 284 294 293 282 302 328 293 292 287 297 298 298 313 313 289 268 264 258 250 238 226 223 218 216 234 252 236 225 245 240 227 228 230 232 237 242 246 247 248 242 240 246 242 235 235 235 229 216 216 226 231 230 228 224
309 311 312 313 311 308 304 302 304 306 306 309 311 313 318 318 325 343 325 303 288 302 312 308 319 327 330 352 339 311 325 307 301 331 313 288 216 242 353 281 263 249 198 197 304 304 315 310 292 289 282 262 249 232 227 241 248 238 245 258 245 226 237 249 244 238 234 236 239 241 247 250 253 249 243 245 245 237 233 230 227 223 218 221 231 233 230 225
306 308 310 312 309 305 301 299 299 300 303 306 307 311 315 314 317 334 315 283 287 305 310 306 314 323 337 11 295 310 352 328 305 302 296 311 247 206 187 231 253 229 211 214 148 249 256 266 276 292 305 271 251 233 224 217 244 264 262 258 248 235 234 243 248 241 233 235 239 242 246 246 248 250 246 245 246 243 239 235 227 224 226 228 237 241 234 226
303 305 308 309 308 305 300 297 296 296 299 300 303 308 311 312 316 332 272 260 286 308 309 310 326 3 359 330 287 324 3 174 298 276 257 334 310 283 253 242 263 243 236 296 300 267 224 222 267 261 216 262 259 241 230 207 198 243 266 264 252 236 235 242 239 231 229 233 238 241 244 245 245 247 244 241 245 250 246 241 236 229 229 233 242 249 240 227
301 302 304 305 307 305 300 298 295 295 296 297 302 305 307 311 308 294 250 247 272 308 306 303 339 43 15 300 294 314 286 209 241 279 278 254 262 277 287 284 262 252 249 255 269 270 206 176 247 226 214 266 283 260 239 221 198 202 235 256 258 235 230 248 244 233 231 235 240 242 239 240 244 245 242 236 235 243 242 239 239 236 233 236 245 251 241 225
298 298 300 301 302 301 299 299 296 296 297 296 300 302 302 302 289 281 267 243 255 292 293 269 310 340 335 277 296 304 286 276 239 266 284 252 233 280 294 230 240 259 272 249 255 264 224 196 226 229 224 270 297 282 240 221 205 194 198 227 256 250 236 243 239 227 232 244 245 242 238 240 244 244 242 238 234 237 239 239 240 240 235 235 244 248 235 218
294 294 296 297 298 297 296 296 295 296 298 296 299 299 293 292 289 290 284 252 252 275 281 102 309 292 261 241 274 264 255 286 279 266 287 280 267 291 276 225 240 257 271 271 291 295 254 223 214 240 224 210 256 272 243 224 216 200 191 196 224 244 248 249 240 225 228 243 241 232 234 241 244 243 243 244 243 239 236 234 235 238 235 232 240 242 224 210
291 291 293 293 294 295 293 293 293 294 296 296 297 294 289 294 299 296 290 268 257 254 203 137 283 283 239 199 246 262 253 276 290 282 288 275 260 273 266 259 257 256 274 279 298 281 267 249 194 233 239 210 227 251 220 231 245 221 207 205 204 210 221 233 238 237 236 236 232 224 230 240 244 242 240 239 241 242 240 236 231 230 232 230 235 237 219 207
288 288 291 291 291 293 293 292 292 292 294 295 294 291 291 294 289 288 289 268 248 230 186 165 174 268 261 228 248 270 257 270 294 293 290 272 250 257 259 264 252 234 276 288 254 248 266 268 224 217 238 229 233 246 197 186 234 248 228 223 217 211 216 217 217 235 244 235 233 233 235 243 246 241 239 236 238 241 243 243 234 226 226 224 229 236 224 212
286 286 289 289 289 291 292 292 292 292 293 294 292 288 290 292 268 264 280 260 243 237 196 178 187 235 242 201 222 260 288 313 282 269 286 281 262 252 257 263 251 250 267 288 270 256 262 278 259 233 244 245 239 254 223 184 190 213 222 232 238 227 230 233 217 217 233 229 229 234 235 243 246 244 243 240 239 238 234 237 236 227 221 216 219 229 225 217
284 285 286 287 288 289 291 291 291 292 293 292 291 286 286 293 277 252 269 270 254 244 211 202 220 253 243 169 221 258 305 293 271 255 273 279 264 239 259 259 256 275 276 275 277 265 251 270 270 243 243 248 237 240 238 206 197 202 202 206 244 236 233 244 233 221 224 226 226 232 236 239 239 244 249 242 237 236 232 234 237 230 221 213 212 215 214 213
283 284 284 284 286 287 288 289 289 291 291 288 288 286 283 287 282 262 275 281 255 233 227 221 224 250 249 211 213 217 219 238 252 245 236 261 267 249 261 266 265 287 274 260 278 272 253 265 269 253 245 242 234 230 235 225 209 206 195 179 202 219 218 233 240 228 224 225 222 227 239 240 232 241 252 241 230 232 235 239 242 236 225 214 211 209 207 210
281 281 281 283 285 285 287 288 289 289 289 289 289 287 278 272 272 253 201 222 237 219 257 266 248 243 266 253 223 209 213 214 237 268 254 271 293 273 267 276 272 278 275 277 290 285 268 268 272 273 263 247 238 231 224 213 206 210 208 194 195 203 204 217 230 227 222 222 221 223 233 237 232 239 249 239 228 231 237 242 242 238 229 218 213 209 204 210
279 278 279 281 281 283 285 286 287 288 288 291 291 283 275 265 263 253 211 216 234 228 234 245 251 228 218 252 242 230 240 230 227 271 264 286 309 291 281 287 272 266 285 302 295 280 271 270 276 285 274 255 240 230 231 215 207 216 221 211 204 201 204 214 222 223 218 217 223 225 231 236 233 236 245 242 234 232 233 238 238 235 229 219 215 214 210 213
276 276 278 279 278 281 284 283 286 286 285 288 285 276 276 262 247 260 253 218 209 223 226 211 212 237 212 224 253 262 288 283 264 281 289 301 310 299 285 286 274 268 287 309 296 282 279 276 276 279 276 270 256 249 265 258 224 222 222 215 209 205 210 218 222 223 217 214 220 224 230 236 234 234 241 244 243 240 238 241 244 250 234 217 213 217 220 224
272 272 274 277 277 277 280 281 283 281 281 284 275 267 274 255 225 236 244 219 213 232 235 208 204 238 226 240 270 257 262 267 254 268 280 266 265 271 270 273 273 277 295 305 298 291 288 286 281 274 277 280 268 259 273 273 244 230 222 218 215 210 212 218 220 223 219 216 220 221 225 233 236 237 240 243 245 241 239 243 249 258 250 227 220 220 223 229
268 268 269 273 276 276 277 280 281 279 280 280 272 270 275 263 221 221 229 238 234 238 249 239 230 223 212 232 258 248 242 244 228 242 259 247 235 251 276 280 270 282 306 309 304 303 304 301 292 283 281 282 278 272 270 265 253 237 225 224 225 217 211 214 219 220 216 217 222 223 225 230 234 235 235 236 236 234 240 250 251 250 242 233 233 233 229 230
264 266 267 269 271 272 272 274 278 279 279 277 272 268 266 257 233 221 234 252 237 220 239 235 229 235 238 249 272 276 257 243 234 243 252 252 250 259 277 281 270 280 301 308 296 294 300 304 295 290 292 288 284 281 271 262 257 245 236 237 236 223 212 216 223 222 218 219 222 225 227 228 231 233 234 235 235 234 242 249 245 241 234 228 235 238 235 232
263 265 265 264 265 267 268 270 273 276 277 277 276 271 261 253 233 213 228 250 236 233 245 227 219 239 246 243 259 264 251 245 252 257 260 266 266 266 276 273 265 276 284 277 277 279 285 295 295 296 303 298 286 283 281 274 267 256 250 247 239 225 219 225 228 224 222 224 225 227 228 228 230 233 234 234 231 232 242 240 229 241 244 228 229 231 230 234
262 262 261 262 262 263 265 267 269 273 274 274 276 274 262 254 243 218 213 229 232 232 247 248 245 247 236 236 250 252 251 272 276 269 271 273 256 244 260 266 261 271 274 272 282 285 284 291 295 298 307 304 286 283 293 288 276 264 257 252 241 230 227 229 230 226 223 224 227 229 229 231 232 232 231 229 227 235 248 249 241 241 244 241 245 243 229 228
259 258 259 259 259 260 262 263 266 269 273 274 274 276 269 258 256 231 207 217 235 233 231 238 244 245 239 242 254 249 233 233 251 265 268 260 245 241 253 267 271 272 271 273 284 288 289 293 294 292 302 308 298 286 286 289 288 274 259 250 240 232 231 231 232 231 225 223 226 228 229 230 231 231 225 220 221 229 237 241 239 235 234 234 238 242 235 221
Height
5906 5906 5905 5905 5905 5904 5903 5902 5902 5901 5900 5898 5897 5896 5894 5893 5892 5891 5890 5889 5889 5888 5887 5887 5887 5886 5886 5886 5886 5886 5886 5886 5887 5887 5887 5887 5887 5887 5888 5887 5888 5888 5888 5888 5888 5889 5889 5889 5889 5889 5889 5889 5890 5890 5891 5892 5892 5893 5892 5892 5892 5893 5893 5894 5894 5894 5893 5893 5893 5894 5894 5894 5894 5894 5894 5894 5894 5895 5895 5894 5895 5895 5894 5894 5895 5895 5895 5894
5906 5906 5905 5905 5904 5904 5903 5902 5901 5900 5898 5897 5896 5894 5893 5891 5890 5889 5888 5887 5886 5885 5885 5885 5884 5884 5884 5884 5884 5884 5884 5884 5885 5886 5886 5886 5886 5886 5886 5886 5887 5887 5887 5887 5887 5888 5888 5889 5889 5889 5889 5889 5890 5890 5891 5892 5892 5892 5892 5892 5892 5892 5893 5893 5893 5893 5894 5894 5894 5894 5894 5894 5893 5894 5894 5894 5894 5895 5895 5895 5895 5895 5895 5895 5895 5895 5895 5895
5906 5905 5905 5904 5904 5903 5902 5901 5899 5898 5897 5895 5894 5892 5891 5889 5888 5886 5885 5884 5883 5883 5882 5882 5882 5882 5881 5882 5882 5882 5882 5883 5884 5884 5884 5884 5885 5885 5885 5885 5886 5886 5886 5886 5886 5887 5888 5888 5888 5888 5889 5889 5889 5890 5890 5891 5892 5892 5892 5891 5892 5893 5893 5893 5892 5892 5893 5893 5893 5893 5893 5893 5893 5893 5894 5894 5894 5894 5894 5894 5894 5895 5895 5895 5895 5895 5896 5895
5906 5905 5905 5904 5903 5902 5901 5899 5898 5896 5895 5893 5892 5890 5889 5887 5886 5884 5883 5882 5881 5880 5880 5879 5879 5879 5879 5880 5880 5880 5880 5882 5883 5881 5882 5883 5883 5884 5884 5884 5884 5885 5885 5885 5886 5886 5887 5887 5887 5888 5888 5889 5889 5889 5890 5891 5891 5892 5891 5891 5891 5892 5892 5892 5892 5891 5891 5892 5892 5892 5892 5892 5893 5893 5894 5894 5894 5894 5894 5894 5894 5895 5895 5895 5895 5895 5895 5895
5905 5905 5904 5903 5902 5901 5900 5898 5896 5895 5893 5891 5890 5888 5886 5885 5883 5882 5881 5880 5879 5878 5877 5877 5877 5877 5877 5877 5878 5878 5878 5880 5880 5879 5881 5882 5882 5882 5883 5883 5883 5884 5884 5884 5885 5885 5886 5886 5887 5887 5888 5888 5889 5889 5890 5890 5891 5891 5891 5890 5890 5891 5892 5891 5891 5891 5890 5891 5891 5892 5892 5892 5893 5893 5893 5894 5894 5893 5893 5894 5894 5895 5895 5895 5895 5894 5895 5896
5905 5904 5903 5902 5901 5900 5898 5896 5895 5893 5891 5889 5888 5886 5884 5883 5881 5880 5879 5878 5877 5876 5875 5875 5875 5875 5875 5875 5876 5876 5877 5878 5877 5878 5880 5880 5880 5881 5881 5882 5882 5882 5883 5883 5884 5884 5885 5885 5886 5886 5887 5888 5888 5888 5889 5890 5891 5891 5891 5890 5889 5890 5891 5891 5890 5890 5891 5891 5891 5891 5892 5892 5892 5892 5893 5893 5893 5893 5894 5894 5894 5894 5895 5895 5894 5894 5895 5896
5904 5903 5902 5901 5900 5898 5896 5895 5893 5891 5890 5888 5886 5884 5883 5881 5880 5879 5877 5876 5875 5874 5874 5873 5873 5873 5873 5873 5874 5874 5876 5876 5875 5877 5878 5878 5879 5879 5880 5880 5881 5881 5882 5882 5883 5883 5884 5884 5885 5885 5886 5886 5887 5888 5888 5890 5890 5890 5890 5889 5888 5888 5889 5890 5890 5890 5891 5891 5890 5891 5891 5891 5892 5892 5893 5892 5892 5893 5893 5893 5894 5894 5894 5895 5895 5894 5895 5896
5903 5902 5901 5900 5898 5897 5895 5894 5892 5890 5888 5886 5885 5883 5882 5880 5879 5878 5876 5875 5874 5874 5873 5873 5872 5872 5871 5872 5872 5873 5874 5874 5874 5875 5876 5876 5877 5877 5878 5879 5879 5880 5880 5881 5882 5882 5883 5883 5884 5884 5885 5885 5886 5887 5888 5889 5890 5890 5890 5889 5888 5887 5887 5889 5889 5889 5890 5890 5890 5890 5890 5890 5891 5892 5892 5892 5891 5892 5892 5893 5893 5894 5894 5895 5895 5894 5895 5895
5902 5901 5900 5899 5897 5896 5894 5892 5891 5889 5887 5885 5884 5882 5881 5880 5878 5877 5876 5875 5874 5873 5872 5872 5872 5871 5871 5871 5871 5872 5872 5872 5873 5874 5874 5874 5875 5875 5876 5877 5877 5878 5879 5880 5880 5881 5882 5882 5883 5884 5884 5884 5885 5886 5886 5888 5888 5889 5889 5888 5888 5887 5887 5887 5887 5888 5887 5888 5889 5889 5889 5889 5889 5890 5891 5890 5890 5891 5891 5892 5893 5893 5894 5895 5895 5895 5895 5895
5902 5901 5899 5898 5896 5894 5893 5891 5890 5888 5886 5885 5883 5882 5880 5879 5878 5877 5876 5875 5874 5873 5872 5871 5871 5870 5870 5870 5870 5870 5870 5871 5872 5872 5872 5873 5873 5874 5874 5875 5876 5877 5877 5878 5879 5880 5880 5881 5882 5883 5883 5883 5883 5884 5885 5887 5887 5887 5887 5887 5887 5886 5886 5886 5886 5885 5885 5886 5887 5887 5887 5887 5888 5888 5888 5887 5888 5890 5891 5892 5892 5893 5893 5894 5895 5895 5895 5895
5901 5900 5898 5897 5895 5893 5892 5890 5888 5887 5885 5884 5882 5881 5880 5879 5878 5876 5875 5874 5873 5872 5871 5871 5870 5870 5869 5869 5869 5869 5869 5870 5870 5870 5871 5871 5872 5872 5873 5873 5874 5875 5876 5877 5878 5878 5879 5880 5881 5881 5881 5882 5882 5883 5884 5885 5886 5886 5886 5886 5886 5885 5885 5885 5884 5884 5884 5884 5884 5885 5885 5886 5884 5881 5882 5885 5887 5889 5890 5891 5892 5893 5893 5894 5896 5896 5895 5895
5900 5899 5897 5896 5894 5893 5891 5889 5887 5886 5884 5883 5881 5880 5879 5878 5877 5876 5875 5873 5872 5872 5871 5870 5869 5869 5868 5868 5868 5868 5868 5868 5868 5869 5869 5870 5870 5871 5871 5872 5873 5873 5874 5875 5876 5877 5878 5879 5879 5880 5881 5881 5882 5882 5883 5884 5884 5885 5885 5885 5885 5884 5884 5884 5884 5883 5884 5883 5881 5881 5882 5884 5880 5875 5878 5884 5886 5887 5889 5890 5891 5892 5893 5894 5896 5896 5895 5895
5899 5898 5897 5895 5894 5892 5890 5889 5887 5885 5883 5882 5881 5879 5878 5877 5876 5875 5874 5872 5871 5870 5870 5869 5868 5868 5867 5867 5867 5867 5867 5867 5867 5867 5868 5868 5869 5870 5870 5871 5871 5872 5873 5874 5875 5876 5876 5877 5878 5879 5880 5880 5881 5881 5882 5882 5883 5884 5884 5884 5884 5883 5882 5882 5883 5883 5883 5882 5881 5880 5879 5880 5879 5877 5878 5879 5881 5885 5887 5889 5891 5891 5893 5894 5896 5896 5895 5895
5898 5897 5896 5894 5893 5891 5890 5888 5886 5884 5883 5881 5880 5879 5877 5876 5875 5874 5873 5871 5870 5869 5868 5867 5867 5867 5866 5865 5865 5865 5866 5866 5866 5866 5866 5867 5867 5868 5869 5869 5870 5871 5872 5873 5873 5874 5875 5876 5876 5877 5879 5879 5879 5880 5881 5881 5882 5882 5883 5883 5883 5883 5881 5880 5881 5881 5882 5881 5880 5879 5878 5878 5878 5878 5877 5876 5879 5883 5886 5888 5890 5891 5892 5894 5896 5895 5895 5895
5897 5896 5895 5893 5892 5890 5889 5887 5885 5883 5882 5880 5879 5878 5877 5875 5874 5873 5872 5870 5869 5868 5867 5866 5865 5865 5864 5864 5864 5864 5864 5864 5864 5864 5864 5865 5865 5866 5867 5868 5868 5869 5870 5871 5872 5873 5873 5874 5875 5876 5877 5878 5878 5879 5879 5880 5881 5881 5882 5883 5882 5882 5880 5879 5880 5880 5880 5880 5878 5877 5876 5877 5877 5876 5876 5876 5879 5882 5885 5887 5888 5890 5892 5894 5896 5895 5895 5895
5896 5895 5894 5892 5891 5889 5887 5885 5884 5882 5880 5879 5878 5877 5875 5874 5873 5872 5871 5870 5868 5867 5866 5865 5864 5863 5863 5862 5862 5862 5862 5862 5862 5862 5863 5863 5863 5864 5865 5866 5866 5868 5868 5870 5870 5871 5872 5872 5873 5875 5876 5876 5877 5878 5878 5879 5880 5880 5881 5881 5880 5880 5879 5880 5880 5878 5878 5879 5877 5876 5875 5875 5875 5874 5875 5877 5880 5883 5885 5886 5888 5890 5892 5894 5895 5895 5895 5895
5895 5894 5892 5891 5890 5888 5886 5884 5882 5881 5879 5878 5876 5875 5874 5873 5872 5871 5870 5869 5867 5866 5865 5864 5863 5862 5861 5861 5861 5860 5860 5860 5860 5860 5861 5861 5861 5862 5863 5863 5864 5865 5866 5867 5868 5869 5870 5871 5872 5873 5874 5875 5876 5876 5878 5879 5880 5880 5879 5879 5879 5879 5878 5879 5879 5877 5877 5878 5877 5876 5875 5874 5874 5874 5875 5878 5880 5883 5885 5886 5888 5891 5893 5894 5895 5895 5895 5895
5894 5893 5891 5890 5889 5887 5885 5883 5881 5880 5878 5877 5875 5874 5873 5872 5871 5870 5869 5868 5867 5866 5865 5863 5862 5861 5860 5860 5859 5859 5858 5858 5858 5858 5858 5859 5859 5859 5860 5861 5862 5863 5864 5865 5866 5867 5868 5869 5870 5871 5872 5874 5874 5875 5877 5878 5879 5878 5876 5878 5879 5879 5878 5878 5878 5877 5877 5878 5877 5875 5874 5874 5874 5875 5877 5880 5882 5883 5885 5887 5889 5891 5893 5894 5894 5895 5895 5895
5893 5892 5890 5889 5887 5886 5884 5882 5880 5878 5877 5875 5874 5873 5871 5870 5869 5869 5868 5866 5865 5865 5863 5862 5861 5860 5859 5859 5858 5857 5857 5856 5856 5856 5856 5856 5857 5857 5858 5859 5860 5861 5861 5862 5864 5865 5866 5867 5868 5869 5871 5872 5873 5874 5875 5876 5877 5876 5876 5878 5878 5878 5878 5878 5878 5878 5878 5877 5877 5876 5875 5875 5876 5878 5879 5881 5883 5884 5885 5888 5890 5891 5892 5893 5894 5895 5895 5895
5892 5890 5889 5888 5886 5884 5882 5881 5879 5877 5876 5874 5873 5872 5870 5869 5868 5867 5866 5865 5864 5863 5862 5861 5860 5859 5859 5858 5857 5856 5855 5855 5855 5854 5854 5855 5855 5855 5856 5857 5858 5858 5859 5860 5861 5863 5864 5865 5866 5868 5869 5870 5872 5872 5874 5875 5875 5874 5875 5877 5876 5877 5878 5878 5878 5879 5878 5877 5878 5878 5877 5878 5879 5879 5880 5881 5883 5885 5886 5888 5889 5890 5891 5893 5894 5894 5895 5895
5891 5889 5888 5886 5885 5883 5881 5879 5878 5876 5874 5873 5872 5870 5869 5868 5867 5866 5865 5864 5863 5862 5861 5860 5859 5858 5857 5856 5856 5855 5854 5854 5853 5853 5853 5853 5853 5853 5854 5855 5855 5856 5857 5858 5860 5861 5863 5863 5864 5866 5867 5869 5869 5870 5871 5873 5872 5873 5874 5876 5876 5876 5878 5878 5877 5878 5878 5877 5877 5878 5879 5880 5880 5881 5881 5882 5883 5884 5886 5888 5889 5890 5891 5892 5894 5894 5895 5895
5889 5888 5886 5885 5883 5882 5880 5878 5877 5875 5874 5872 5871 5870 5868 5867 5866 5865 5864 5863 5862 5861 5860 5859 5858 5857 5856 5855 5854 5854 5853 5852 5852 5852 5851 5851 5852 5852 5853 5853 5853 5854 5855 5857 5858 5860 5861 5862 5863 5864 5866 5866 5866 5867 5869 5870 5870 5871 5873 5874 5875 5875 5876 5877 5876 5877 5877 5876 5877 5878 5879 5880 5880 5881 5881 5882 5882 5883 5884 5886 5888 5890 5891 5892 5893 5894 5895 5895
5888 5886 5885 5883 5882 5880 5879 5877 5876 5874 5873 5872 5870 5869 5868 5867 5865 5864 5863 5862 5861 5860 5859 5858 5857 5857 5856 5855 5854 5853 5852 5851 5851 5850 5850 5850 5850 5851 5851 5851 5852 5853 5854 5855 5856 5857 5860 5861 5861 5862 5864 5863 5863 5865 5867 5868 5869 5870 5871 5873 5873 5874 5875 5875 5875 5876 5875 5876 5877 5878 5878 5879 5880 5880 5881 5882 5882 5882 5884 5885 5886 5889 5890 5892 5893 5894 5895 5895
5886 5885 5884 5882 5881 5879 5877 5876 5875 5873 5872 5871 5870 5869 5868 5866 5865 5863 5862 5862 5861 5860 5859 5858 5856 5856 5855 5853 5853 5852 5851 5850 5850 5849 5849 5849 5849 5849 5850 5850 5851 5851 5852 5853 5854 5856 5859 5859 5858 5860 5860 5859 5859 5861 5865 5867 5868 5869 5870 5871 5873 5873 5873 5874 5874 5874 5874 5875 5876 5877 5878 5879 5880 5881 5881 5882 5883 5884 5885 5885 5885 5888 5890 5891 5892 5893 5894 5894
5885 5884 5882 5881 5879 5878 5876 5875 5874 5873 5871 5870 5869 5868 5867 5866 5864 5863 5862 5861 5860 5859 5858 5857 5856 5855 5854 5853 5852 5851 5850 5849 5849 5848 5848 5848 5848 5848 5848 5849 5849 5850 5850 5851 5853 5855 5857 5856 5856 5857 5856 5855 5856 5859 5863 5865 5866 5868 5869 5871 5873 5871 5871 5873 5873 5873 5874 5876 5875 5876 5878 5878 5879 5880 5880 5882 5884 5885 5886 5886 5885 5887 5889 5890 5891 5892 5893 5894
5884 5882 5881 5879 5878 5876 5875 5874 5873 5872 5871 5870 5869 5868 5866 5865 5864 5862 5860 5859 5859 5858 5857 5857 5856 5854 5854 5852 5851 5850 5849 5849 5848 5847 5847 5847 5847 5847 5847 5848 5848 5849 5849 5850 5852 5853 5854 5853 5852 5853 5853 5853 5856 5859 5862 5863 5865 5868 5869 5871 5872 5870 5870 5872 5872 5871 5874 5876 5875 5875 5877 5877 5878 5879 5879 5881 5882 5883 5885 5886 5886 5887 5889 5889 5890 5892 5892 5893
5882 5881 5879 5878 5876 5875 5874 5873 5872 5871 5870 5869 5868 5867 5866 5864 5863 5861 5859 5858 5857 5856 5856 5855 5854 5853 5853 5851 5850 5849 5848 5848 5847 5847 5846 5846 5846 5846 5847 5847 5847 5848 5849 5850 5851 5851 5851 5850 5848 5850 5854 5854 5855 5858 5861 5862 5864 5867 5867 5868 5868 5867 5868 5869 5870 5871 5872 5874 5875 5875 5876 5876 5877 5878 5879 5880 5881 5882 5883 5885 5885 5887 5888 5889 5890 5891 5892 5893
5881 5879 5878 5876 5875 5874 5873 5872 5871 5870 5869 5868 5867 5866 5865 5864 5862 5861 5859 5858 5857 5856 5855 5855 5854 5853 5852 5850 5849 5848 5847 5847 5847 5846 5846 5846 5846 5846 5846 5846 5847 5847 5848 5849 5849 5848 5849 5850 5848 5850 5853 5853 5854 5857 5859 5859 5862 5863 5862 5862 5863 5862 5864 5866 5868 5870 5870 5872 5874 5875 5875 5876 5876 5877 5878 5880 5881 5881 5882 5882 5884 5885 5887 5889 5889 5890 5891 5892
5879 5878 5876 5875 5874 5873 5872 5870 5869 5869 5868 5867 5866 5865 5864 5863 5861 5860 5859 5858 5858 5857 5856 5855 5854 5853 5851 5850 5849 5848 5847 5846 5846 5846 5846 5846 5846 5845 5846 5846 5846 5847 5847 5848 5848 5847 5848 5849 5848 5848 5850 5851 5852 5855 5854 5856 5861 5861 5858 5859 5859 5859 5862 5865 5867 5867 5869 5871 5873 5874 5875 5875 5875 5877 5878 5880 5881 5882 5882 5882 5883 5884 5886 5887 5888 5889 5890 5891
5877 5876 5875 5873 5872 5871 5870 5869 5868 5867 5867 5866 5865 5864 5863 5862 5861 5859 5858 5858 5857 5856 5855 5854 5853 5852 5851 5849 5848 5847 5846 5846 5846 5846 5845 5845 5845 5845 5845 5846 5846 5846 5846 5846 5846 5846 5847 5848 5847 5847 5848 5849 5850 5851 5852 5856 5859 5859 5858 5859 5859 5859 5862 5863 5864 5866 5868 5870 5871 5872 5873 5873 5874 5876 5878 5879 5880 5881 5881 5882 5882 5883 5885 5886 5887 5888 5889 5890
5875 5874 5873 5872 5871 5870 5869 5868 5867 5866 5865 5865 5864 5863 5862 5861 5860 5859 5858 5857 5856 5854 5853 5852 5852 5851 5849 5848 5847 5846 5846 5846 5845 5845 5845 5844 5844 5845 5845 5845 5845 5845 5845 5846 5846 5845 5845 5846 5846 5846 5847 5847 5848 5850 5852 5853 5853 5855 5857 5857 5857 5859 5860 5861 5864 5865 5866 5869 5869 5869 5870 5871 5873 5875 5876 5876 5878 5879 5880 5881 5882 5882 5884 5886 5887 5888 5888 5889
5873 5872 5871 5870 5869 5868 5867 5866 5865 5865 5864 5863 5862 5862 5861 5860 5859 5858 5857 5857 5856 5854 5853 5852 5850 5850 5849 5848 5847 5846 5846 5845 5845 5845 5844 5844 5845 5845 5845 5845 5844 5844 5846 5847 5847 5846 5845 5845 5844 5845 5846 5846 5847 5849 5850 5850 5851 5854 5856 5854 5856 5859 5859 5860 5863 5863 5865 5867 5867 5868 5869 5870 5872 5873 5874 5874 5875 5876 5877 5879 5881 5882 5883 5884 5886 5887 5888 5888
5871 5870 5869 5868 5867 5866 5865 5865 5864 5863 5862 5862 5861 5860 5860 5858 5858 5857 5857 5857 5855 5854 5854 5852 5851 5850 5849 5848 5848 5847 5846 5845 5845 5845 5844 5844 5845 5846 5846 5847 5845 5844 5846 5847 5848 5849 5849 5848 5845 5843 5844 5845 5846 5848 5848 5850 5852 5853 5854 5853 5855 5858 5859 5861 5862 5863 5865 5866 5865 5867 5868 5869 5871 5871 5871 5872 5873 5874 5875 5877 5879 5881 5882 5883 5884 5886 5887 5887
5869 5868 5867 5866 5865 5864 5863 5863 5862 5861 5861 5860 5859 5859 5858 5857 5857 5857 5858 5857 5854 5852 5853 5852 5851 5850 5849 5849 5849 5847 5846 5846 5846 5845 5845 5845 5845 5845 5845 5847 5845 5843 5844 5845 5847 5849 5850 5850 5847 5844 5844 5844 5844 5846 5847 5849 5852 5852 5852 5852 5853 5855 5858 5861 5862 5862 5863 5863 5863 5865 5866 5867 5869 5869 5869 5870 5871 5873 5874 5875 5878 5880 5880 5882 5883 5884 5885 5886
5867 5866 5865 5864 5863 5862 5861 5861 5860 5860 5859 5858 5857 5857 5857 5856 5855 5857 5858 5855 5852 5851 5851 5851 5850 5849 5849 5849 5848 5848 5847 5848 5847 5845 5846 5846 5845 5844 5843 5844 5844 5842 5843 5845 5846 5845 5846 5848 5846 5844 5844 5843 5842 5844 5845 5846 5850 5852 5852 5851 5852 5854 5857 5858 5859 5859 5860 5861 5861 5863 5865 5865 5866 5867 5868 5870 5871 5872 5873 5874 5875 5877 5879 5880 5881 5882 5882 5884
5864 5863 5863 5862 5861 5860 5859 5859 5858 5857 5857 5856 5856 5855 5855 5854 5854 5854 5855 5853 5850 5850 5850 5850 5849 5850 5852 5851 5849 5848 5847 5847 5846 5845 5845 5846 5845 5844 5844 5844 5844 5842 5842 5844 5844 5842 5843 5845 5845 5843 5843 5842 5842 5843 5843 5845 5848 5850 5852 5852 5853 5854 5857 5858 5857 5858 5859 5860 5860 5862 5863 5863 5865 5866 5866 5868 5870 5870 5870 5872 5873 5875 5877 5878 5878 5879 5880 5881
5861 5861 5860 5859 5858 5858 5857 5856 5856 5855 5855 5854 5853 5853 5852 5852 5851 5851 5851 5850 5849 5849 5849 5850 5850 5851 5854 5854 5851 5848 5846 5845 5845 5845 5844 5844 5843 5843 5843 5843 5842 5840 5840 5841 5840 5839 5840 5841 5842 5842 5842 5843 5842 5841 5841 5843 5846 5847 5849 5853 5854 5854 5855 5855 5855 5856 5858 5859 5860 5861 5861 5862 5863 5864 5863 5865 5867 5867 5869 5871 5872 5873 5875 5876 5877 5877 5878 5879
5859 5858 5858 5857 5856 5855 5854 5854 5853 5853 5852 5852 5851 5851 5850 5849 5848 5847 5848 5848 5847 5847 5848 5850 5851 5851 5852 5854 5852 5848 5846 5846 5845 5844 5843 5842 5841 5840 5841 5842 5841 5839 5838 5838 5839 5839 5838 5838 5840 5840 5841 5842 5840 5838 5839 5841 5843 5844 5847 5849 5851 5852 5854 5854 5854 5855 5856 5857 5858 5859 5859 5859 5860 5862 5862 5863 5865 5866 5867 5868 5869 5870 5872 5873 5875 5875 5876 5877
5855 5855 5855 5854 5853 5852 5852 5851 5851 5850 5850 5850 5849 5848 5847 5847 5847 5845 5845 5845 5845 5845 5847 5849 5851 5850 5849 5851 5850 5847 5846 5846 5845 5843 5841 5841 5840 5839 5840 5840 5840 5839 5838 5838 5839 5838 5837 5836 5838 5839 5839 5839 5838 5837 5839 5842 5843 5844 5845 5846 5847 5849 5852 5852 5852 5853 5854 5855 5856 5857 5858 5857 5858 5860 5861 5862 5864 5865 5866 5866 5865 5866 5868 5870 5871 5873 5874 5875
5852 5852 5852 5851 5850 5850 5849 5848 5848 5848 5847 5847 5846 5845 5844 5845 5847 5845 5842 5842 5842 5843 5844 5846 5848 5849 5848 5847 5848 5847 5845 5844 5845 5844 5841 5840 5839 5838 5838 5839 5838 5838 5838 5837 5836 5835 5835 5834 5835 5836 5836 5836 5836 5836 5838 5841 5844 5845 5845 5846 5847 5848 5849 5850 5850 5852 5854 5854 5854 5856 5856 5854 5856 5858 5859 5860 5861 5863 5864 5865 5864 5863 5864 5867 5868 5871 5873 5874
5849 5849 5849 5848 5847 5847 5846 5845 5845 5845 5845 5844 5844 5843 5841 5842 5845 5843 5840 5838 5839 5840 5842 5841 5842 5844 5845 5845 5846 5845 5844 5845 5845 5844 5842 5839 5838 5837 5836 5837 5837 5836 5836 5835 5833 5832 5833 5833 5832 5833 5832 5833 5835 5836 5836 5837 5840 5842 5842 5844 5846 5848 5849 5849 5849 5850 5851 5852 5853 5854 5853 5853 5854 5856 5856 5857 5859 5860 5861 5862 5863 5861 5861 5864 5866 5868 5871 5873
5846 5846 5846 5845 5844 5844 5843 5843 5842 5842 5842 5841 5840 5840 5839 5839 5840 5840 5837 5836 5836 5838 5839 5839 5840 5840 5841 5843 5845 5844 5844 5845 5845 5843 5842 5838 5836 5836 5835 5834 5835 5834 5834 5834 5831 5830 5831 5831 5829 5829 5829 5831 5832 5833 5835 5835 5836 5836 5837 5840 5845 5847 5847 5847 5847 5847 5848 5849 5850 5852 5851 5851 5853 5854 5854 5855 5856 5858 5859 5859 5861 5861 5860 5861 5863 5865 5868 5871
5842 5842 5843 5842 5841 5841 5841 5840 5840 5839 5839 5838 5837 5837 5837 5837 5837 5836 5835 5835 5835 5836 5837 5838 5839 5840 5841 5841 5841 5841 5842 5842 5842 5840 5839 5836 5834 5835 5834 5833 5833 5833 5832 5831 5829 5828 5829 5828 5827 5827 5827 5828 5829 5829 5831 5833 5834 5835 5834 5835 5839 5841 5841 5842 5843 5843 5845 5846 5847 5849 5849 5849 5852 5852 5852 5853 5854 5856 5858 5858 5858 5860 5860 5860 5861 5863 5866 5869
5839 5839 5839 5839 5838 5838 5838 5837 5836 5836 5836 5834 5834 5834 5834 5834 5835 5834 5835 5837 5835 5834 5837 5838 5838 5839 5839 5838 5838 5838 5839 5839 5839 5838 5837 5836 5834 5832 5832 5832 5831 5831 5830 5829 5828 5828 5828 5826 5826 5827 5827 5826 5825 5826 5827 5828 5829 5831 5831 5831 5832 5834 5835 5836 5838 5840 5841 5843 5845 5847 5846 5847 5850 5852 5851 5853 5854 5855 5857 5857 5856 5858 5859 5859 5860 5862 5864 5866
5835 5835 5836 5836 5835 5835 5835 5834 5834 5833 5832 5831 5832 5832 5831 5831 5831 5831 5832 5835 5834 5834 5837 5838 5838 5839 5838 5837 5837 5837 5836 5837 5838 5837 5835 5836 5834 5831 5830 5831 5830 5829 5829 5828 5827 5827 5827 5826 5826 5826 5826 5824 5825 5825 5823 5822 5823 5824 5827 5829 5830 5831 5831 5832 5834 5836 5838 5841 5843 5845 5845 5845 5848 5851 5851 5852 5853 5855 5856 5856 5855 5856 5858 5858 5859 5861 5862 5864
5831 5831 5831 5832 5832 5832 5831 5831 5831 5831 5830 5829 5830 5830 5830 5829 5829 5829 5829 5830 5831 5833 5835 5835 5835 5836 5836 5836 5836 5836 5836 5837 5837 5836 5835 5835 5835 5832 5830 5831 5830 5828 5827 5827 5826 5826 5825 5825 5825 5824 5823 5823 5824 5824 5822 5821 5821 5820 5823 5827 5828 5827 5829 5831 5833 5835 5836 5839 5841 5842 5843 5843 5846 5848 5850 5851 5852 5854 5856 5855 5854 5855 5857 5858 5859 5860 5861 5862
5827 5827 5827 5827 5828 5829 5829 5828 5828 5828 5827 5827 5827 5828 5828 5827 5827 5828 5828 5828 5829 5829 5830 5831 5831 5833 5835 5835 5835 5835 5836 5836 5836 5837 5836 5835 5834 5831 5829 5829 5828 5826 5826 5826 5825 5824 5824 5823 5823 5823 5822 5822 5822 5822 5822 5821 5820 5819 5821 5825 5826 5825 5827 5829 5832 5834 5835 5837 5838 5839 5841 5842 5843 5846 5848 5850 5851 5852 5854 5854 5854 5854 5855 5856 5858 5860 5861 5862
5823 5823 5824 5824 5824 5825 5826 5825 5825 5825 5825 5825 5824 5824 5825 5825 5826 5827 5826 5827 5827 5827 5827 5828 5829 5830 5832 5833 5832 5833 5833 5832 5833 5834 5833 5831 5830 5829 5827 5827 5826 5825 5825 5824 5823 5823 5823 5823 5823 5822 5821 5822 5822 5821 5821 5821 5820 5820 5822 5824 5824 5824 5824 5826 5830 5832 5834 5836 5837 5838 5839 5841 5843 5844 5846 5849 5849 5849 5851 5852 5853 5853 5852 5853 5855 5858 5860 5861
5818 5819 5820 5821 5821 5822 5822 5822 5822 5822 5822 5822 5822 5821 5821 5823 5825 5827 5826 5825 5826 5827 5826 5826 5827 5829 5830 5831 5831 5832 5831 5829 5829 5829 5828 5826 5826 5826 5826 5825 5824 5824 5824 5823 5822 5822 5823 5822 5822 5821 5821 5821 5821 5819 5820 5820 5820 5820 5822 5823 5824 5824 5824 5825 5828 5830 5832 5835 5836 5837 5838 5840 5842 5843 5843 5845 5847 5849 5849 5851 5851 5851 5851 5851 5852 5855 5857 5858
5815 5816 5817 5817 5818 5818 5819 5819 5819 5819 5819 5819 5818 5819 5819 5820 5822 5824 5825 5825 5826 5826 5825 5825 5826 5827 5829 5830 5830 5830 5828 5827 5826 5825 5825 5825 5825 5825 5825 5823 5823 5823 5823 5822 5821 5821 5822 5821 5820 5820 5820 5820 5819 5818 5818 5819 5819 5820 5821 5822 5823 5824 5824 5825 5826 5827 5830 5832 5833 5835 5837 5839 5840 5841 5840 5842 5846 5849 5849 5849 5849 5850 5850 5851 5851 5852 5853 5854
5811 5812 5812 5813 5814 5814 5815 5816 5816 5816 5816 5816 5816 5816 5816 5816 5817 5820 5822 5822 5823 5824 5824 5825 5825 5826 5826 5827 5827 5827 5827 5827 5825 5824 5824 5825 5824 5823 5822 5822 5821 5822 5822 5822 5820 5820 5820 5821 5820 5819 5818 5818 5817 5817 5817 5817 5818 5818 5819 5820 5821 5822 5823 5824 5825 5826 5828 5830 5832 5835 5837 5837 5838 5840 5839 5840 5845 5848 5848 5848 5849 5849 5849 5851 5851 5852 5852 5852
5807 5807 5808 5809 5810 5811 5812 5813 5813 5813 5813 5813 5813 5813 5813 5814 5815 5816 5818 5819 5820 5822 5823 5824 5825 5825 5824 5825 5825 5824 5824 5823 5822 5821 5820 5821 5820 5820 5820 5820 5820 5821 5821 5820 5820 5819 5819 5819 5819 5818 5818 5817 5816 5816 5817 5817 5817 5818 5818 5818 5819 5820 5821 5822 5823 5825 5827 5828 5830 5833 5834 5833 5836 5839 5837 5836 5840 5845 5847 5848 5849 5848 5848 5849 5850 5851 5852 5852